PGL YPJT-YPJT

Flight info

Callsign PGL
Flight time 0h 18m
Altitude 1000
Route CIRCUITS RUNWAY 12 YPJT
Aircraft C172/L-V/N

Departure

Time 2026-04-26 13:25
Airport Perth Jandakot Airport (YPJT)

Arrival

Time 2026-04-26 13:43
Airport Perth Jandakot Airport (YPJT)
Time Latitude Longitude Altitude Speed Heading
2026-04-26 13:13 -32.09857 115.87332 96 ft 0 kts 115°
2026-04-26 13:21 -32.09858 115.87333 96 ft 2 kts 106°
2026-04-26 13:21 -32.09835 115.87386 96 ft 9 kts 105°
2026-04-26 13:21 -32.09891 115.87411 95 ft 8 kts 188°
2026-04-26 13:22 -32.09943 115.87359 95 ft 10 kts 236°
2026-04-26 13:22 -32.09962 115.87326 95 ft 0 kts 234°
2026-04-26 13:23 -32.09966 115.87320 95 ft 6 kts 231°
2026-04-26 13:23 -32.10014 115.87300 94 ft 6 kts 124°
2026-04-26 13:23 -32.10034 115.87347 95 ft 15 kts 115°
2026-04-26 13:24 -32.10153 115.87660 97 ft 67 kts 114°
2026-04-26 13:24 -32.10375 115.88243 221 ft 83 kts 117°
2026-04-26 13:24 -32.10593 115.88875 445 ft 84 kts 119°
2026-04-26 13:24 -32.10840 115.89490 668 ft 83 kts 126°
2026-04-26 13:25 -32.11240 115.89947 911 ft 81 kts 166°
2026-04-26 13:25 -32.11830 115.89805 1041 ft 94 kts 199°
2026-04-26 13:25 -32.12383 115.89360 1191 ft 105 kts 237°
2026-04-26 13:25 -32.12400 115.88457 1198 ft 122 kts 292°
2026-04-26 13:26 -32.12052 115.87550 1078 ft 120 kts 296°
2026-04-26 13:26 -32.11668 115.86694 944 ft 117 kts 298°
2026-04-26 13:26 -32.11268 115.85892 892 ft 108 kts 300°
2026-04-26 13:26 -32.10887 115.85144 865 ft 105 kts 297°
2026-04-26 13:27 -32.10486 115.84458 866 ft 98 kts 325°
2026-04-26 13:27 -32.09836 115.84334 838 ft 94 kts 15°
2026-04-26 13:27 -32.09291 115.84664 722 ft 87 kts 37°
2026-04-26 13:27 -32.08880 115.85158 696 ft 75 kts 89°
2026-04-26 13:28 -32.09026 115.85686 648 ft 75 kts 122°
2026-04-26 13:28 -32.09273 115.86301 664 ft 94 kts 120°
2026-04-26 13:28 -32.09544 115.87051 736 ft 100 kts 117°
2026-04-26 13:28 -32.09826 115.87818 822 ft 105 kts 115°
2026-04-26 13:29 -32.10114 115.88609 917 ft 107 kts 114°
2026-04-26 13:29 -32.10312 115.89137 1040 ft 102 kts 115°
2026-04-26 13:29 -32.10707 115.90186 1183 ft 102 kts 121°
2026-04-26 13:29 -32.11279 115.90671 1342 ft 105 kts 163°
2026-04-26 13:30 -32.12057 115.90656 1376 ft 119 kts 186°
2026-04-26 13:30 -32.12801 115.90231 1371 ft 120 kts 224°
2026-04-26 13:30 -32.13003 115.89336 1274 ft 116 kts 285°
2026-04-26 13:30 -32.12578 115.88502 1053 ft 122 kts 307°
2026-04-26 13:31 -32.12108 115.87702 932 ft 118 kts 303°
2026-04-26 13:31 -32.11650 115.86933 886 ft 112 kts 305°
2026-04-26 13:31 -32.11184 115.86181 809 ft 111 kts 310°
2026-04-26 13:31 -32.10676 115.85558 710 ft 101 kts 316°
2026-04-26 13:32 -32.10142 115.85011 732 ft 98 kts 334°
2026-04-26 13:32 -32.09534 115.85102 724 ft 90 kts 47°
2026-04-26 13:32 -32.09411 115.85740 571 ft 79 kts 115°
2026-04-26 13:32 -32.09623 115.86290 393 ft 75 kts 120°
2026-04-26 13:33 -32.09829 115.86825 246 ft 70 kts 124°
2026-04-26 13:33 -32.10032 115.87335 127 ft 69 kts 116°
2026-04-26 13:33 -32.10200 115.87782 95 ft 52 kts 110°
2026-04-26 13:33 -32.10402 115.88301 178 ft 78 kts 121°
2026-04-26 13:34 -32.10607 115.88929 371 ft 85 kts 115°
2026-04-26 13:34 -32.10837 115.89611 539 ft 94 kts 117°
2026-04-26 13:34 -32.11147 115.90264 783 ft 87 kts 143°
2026-04-26 13:34 -32.11530 115.90403 884 ft 93 kts 185°
2026-04-26 13:35 -32.12303 115.89794 1000 ft 110 kts 218°
2026-04-26 13:35 -32.12820 115.89096 1114 ft 114 kts 244°
2026-04-26 13:35 -32.12765 115.88147 1124 ft 129 kts 296°
2026-04-26 13:35 -32.12257 115.87201 1030 ft 139 kts 310°
2026-04-26 13:36 -32.11630 115.86417 919 ft 123 kts 315°
2026-04-26 13:36 -32.11012 115.85753 804 ft 116 kts 319°
2026-04-26 13:36 -32.10481 115.85234 781 ft 110 kts 321°
2026-04-26 13:36 -32.09820 115.84973 833 ft 98 kts 21°
2026-04-26 13:37 -32.09352 115.85491 762 ft 90 kts 82°
2026-04-26 13:37 -32.09519 115.86122 481 ft 80 kts 123°
2026-04-26 13:37 -32.09787 115.86705 297 ft 82 kts 122°
2026-04-26 13:37 -32.10011 115.87288 118 ft 72 kts 120°
2026-04-26 13:38 -32.10193 115.87759 94 ft 62 kts 114°
2026-04-26 13:38 -32.10393 115.88301 241 ft 76 kts 117°
2026-04-26 13:38 -32.10599 115.88922 423 ft 83 kts 116°
2026-04-26 13:38 -32.10837 115.89556 660 ft 84 kts 120°
2026-04-26 13:39 -32.11144 115.90125 847 ft 86 kts 150°
2026-04-26 13:39 -32.11732 115.90003 970 ft 99 kts 206°
2026-04-26 13:39 -32.12347 115.89553 1074 ft 107 kts 210°
2026-04-26 13:39 -32.12757 115.88879 1242 ft 110 kts 264°
2026-04-26 13:40 -32.12491 115.87997 1092 ft 119 kts 300°
2026-04-26 13:40 -32.12070 115.87135 999 ft 122 kts 300°
2026-04-26 13:40 -32.11634 115.86282 920 ft 122 kts 301°
2026-04-26 13:40 -32.11202 115.85465 878 ft 115 kts 302°
2026-04-26 13:41 -32.10754 115.84720 909 ft 108 kts 310°
2026-04-26 13:41 -32.10145 115.84460 906 ft 91 kts 11°
2026-04-26 13:41 -32.09536 115.84614 721 ft 90 kts 22°
2026-04-26 13:41 -32.09277 115.85183 570 ft 86 kts 102°
2026-04-26 13:42 -32.09430 115.85817 422 ft 69 kts 120°
2026-04-26 13:42 -32.09638 115.86349 344 ft 77 kts 122°
2026-04-26 13:42 -32.09875 115.86948 217 ft 79 kts 118°
2026-04-26 13:42 -32.10086 115.87484 100 ft 66 kts 119°
2026-04-26 13:43 -32.10213 115.87811 94 ft 18 kts 113°
2026-04-26 13:43 -32.10177 115.87872 94 ft 6 kts 23°
2026-04-26 13:43 -32.10175 115.87873 94 ft 0 kts 21°
2026-04-26 13:44 -32.10141 115.87879 95 ft 11 kts 334°
2026-04-26 13:44 -32.10102 115.87793 95 ft 11 kts 294°
2026-04-26 13:44 -32.10062 115.87692 94 ft 14 kts 295°
2026-04-26 13:44 -32.10026 115.87596 95 ft 13 kts 297°
2026-04-26 13:45 -32.09988 115.87493 94 ft 13 kts 290°
2026-04-26 13:45 -32.09930 115.87432 95 ft 11 kts 340°
2026-04-26 13:45 -32.09844 115.87396 96 ft 10 kts 327°
2026-04-26 13:45 -32.09847 115.87331 96 ft 5 kts 208°
2026-04-26 13:46 -32.09857 115.87335 96 ft 0 kts 103°